Flag for Canada Weather past 2 weeks in East Hants, Nova Scotia, Canada

50 °F

Passing clouds.

Feels Like: 48 °F
Forecast: 46 / 63 °F
Wind: 5 mph from Northwest

Location: Halifax International Airport

Current Time: Oct 6, 2015 at 10:18:46 PM

Latest Report: Oct 6, 2015 at 9:00 PM

Visibility: 15 mi

Pressure: 29.85 "Hg

Humidity: 94%

Dew point: 48 °F

Location of East HantsLocation

Historic Weather in East Hants — Graph


East Hants temperature yesterday

Maximum temperature yesterday: 63 °F (at 2:00 PM)
Minimum temperature yesterday: 43 °F (at 2:00 AM)
Average temperature yesterday: 52 °F

Past Weeks' High & Low Weather Summary

High75 °F (Sep 29, 3:00 PM)100% (Sep 22, 3:00 AM)30.49 "Hg (Sep 22, 3:00 AM)
Low36 °F (Oct 4, 5:00 AM)35% (Sep 27, 4:00 PM)29.85 "Hg (Oct 1, 5:00 AM)
Average55 °F82%30.24 "Hg
* Reported Sep 21 9:00 PM — Oct 6 9:00 PM, East Hants, Weather by CustomWeather, © 2015

Note: Actual official high and low records may vary slightly from our data, if they occured in-between our weather recording intervals... More about our weather records


East Hants weather history for previous 24 hours

Time TempWeatherWind HumidityBarometerVisibility
9:00 PM
Tue, Oct 6
50 °FPassing clouds.5 mph94%29.85 "Hg15 mi
8:00 PM52 °FPassing clouds.8 mph94%29.85 "Hg15 mi
7:00 PM55 °FScattered clouds.6 mph82%29.85 "Hg15 mi
6:00 PM57 °FPartly sunny.6 mph82%29.85 "Hg15 mi
5:00 PM59 °FPartly sunny.9 mph77%29.85 "Hg15 mi
4:00 PM59 °FOvercast.8 mph77%29.87 "Hg15 mi
3:00 PM59 °FOvercast.6 mph77%29.88 "Hg15 mi
2:00 PM59 °FMore clouds than sun.8 mph77%29.89 "Hg15 mi
1:00 PM59 °FOvercast.7 mph82%29.91 "Hg15 mi
12:00 PM57 °FOvercast.7 mph88%29.93 "Hg15 mi
11:00 AM57 °FMore clouds than sun.3 mph88%29.94 "Hg15 mi
10:00 AM54 °FLow clouds.6 mph94%29.95 "Hg15 mi
9:00 AM52 °FFog.5 mph100%29.96 "Hg5 mi
8:00 AM50 °FFog.6 mph100%29.97 "Hg3 mi
7:00 AM50 °FDrizzle. Fog.6 mph100%29.98 "Hg2 mi
6:00 AM50 °FDrizzle. Fog.5 mph94%29.99 "Hg1 mi
5:00 AM50 °FFog.9 mph100%30.01 "Hg1 mi
4:00 AM52 °FOvercast.5 mph94%30.01 "Hg15 mi
3:00 AM50 °FOvercast.5 mph100%30.04 "Hg15 mi
2:00 AM52 °FOvercast.7 mph94%30.06 "Hg15 mi
1:00 AM52 °FOvercast.6 mph94%30.08 "Hg15 mi
12:00 AM52 °FOvercast.6 mph94%30.10 "Hg15 mi
11:00 PM
Mon, Oct 5
52 °FPassing clouds.3 mph94%30.12 "Hg15 mi
10:00 PM50 °FPassing clouds.3 mph94%30.13 "Hg15 mi
Weather by CustomWeather, © 2015

See weather overviewHow to use our weather pages